Weather Roundup
Issued by NWS Corpus Christi, TX

Home | Current Version | Previous Version | Text Only | Print | Product List | Glossary On
Versions: 1 2 3 4 5 6 7 8 9 10 11 12 13 14 15 16 17 18 19 20 21 22 23 24 25 26 27 28 29 30 31 32 33 34 35 36 37 38 39 40 41 42 43 44 45 46 47 48 49 50
000
ASUS44 KCRP 240610
HRRCRP

SOUTH TEXAS REGIONAL WEATHER ROUNDUP
NATIONAL WEATHER SERVICE CORPUS CHRISTI TX
100 AM CDT SUN SEP 24 2017


TXZ229>244-240700-
...CORPUS CHRISTI AREA OBSERVATIONS...

CITY           SKY/WX    TMP DP  RH WIND       PRES   REMARKS
CORPUS CHRISTI PTCLDY    79  74  84 SE7       29.84S
NAS CORPUS CHR NOT AVBL
ROCKPORT       PTCLDY    82  74  76 SE14G23   29.84
KINGSVILLE ARP FAIR      78  77  98 CALM      29.84F
KINGSVILLE NAS CLEAR     78  76  93 E6        29.83F
ALICE          CLEAR     77  73  87 SE5       29.84
$$

...VICTORIA AREA OBSERVATIONS...

CITY           SKY/WX    TMP DP  RH WIND       PRES   REMARKS
PORT LAVACA    NOT AVBL
VICTORIA       PTCLDY    75  73  93 E5        29.86F FOG
BEEVILLE       FAIR     N/A N/A N/A E3        29.86S
PLEASANTON     PTCLDY    75  72  88 E3        29.87S
SAN ANTONIO    MOCLDY    76  72  87 SE9       29.90S
$$

...LAREDO AREA OBSERVATIONS...

CITY           SKY/WX    TMP DP  RH WIND       PRES   REMARKS
LAREDO         CLEAR     80  72  76 SE16      29.83F
COTULLA        PTCLDY    79  71  76 SE12      29.85
DEL RIO        PTCLDY    81  68  64 SE21G29   29.80
MCALLEN        CLEAR     80  75  84 SE8       29.83
HEBBRONVILLE   MOCLDY    76  71  84 CALM      29.87R
$$

...OTHER TEXAS OBSERVATIONS...

CITY           SKY/WX    TMP DP  RH WIND       PRES   REMARKS
BROWNSVILLE    PTCLDY    79  76  90 SE5       29.83
HOUSTON        PTCLDY    74  72  93 SE8       29.89S
COL. STATION   CLEAR     75  71  87 SE5       29.89
AUSTIN         CLEAR     73  71  93 S3        29.89S
WACO           CLEAR     78  68  71 S10       29.88S
FORT WORTH     PTCLDY    81  66  60 S9        29.87R
WICHITA FALLS  PTCLDY    75  62  64 SE14      29.87R
LUBBOCK        CLOUDY    76  57  51 S22       29.88R
EL PASO        MOCLDY    79  43  27 W21G26    29.81R
$$

...MARINE OBSERVATIONS...

STATION/POSITION TIME  SKY/WX   TEMP    WIND        PRES    VSBY  WAVE   SWELL
                                AIR SEA DIR/SP/G                  HT/PER HT/PER
                 (UTC)          (F)     (DEG/KT/KT) (MB)    (MI)  (FT/S) (FT/S)
PORT ARANSAS     NOT AVBL
BUOY 90 E PORT A 0550            83 84   90/ 14/ 16 1010.8S         3/ 6
BUOY 200 E PT IS 0550            84 85  110/ 12/ 14 1010.7F         2/ 5
BUOY 15 E GALVES 0450            82 83  130/ 12/ 14 1011.7          2/ 3
$$




USA.gov is the U.S. government's official web portal to all federal, state and local government web resources and services.